{"data":{"norad_id":25415,"intl_designator":"1998-046C","name":"ORBCOMM FM19","alt_names":[],"object_type":"PAYLOAD","status":"ACTIVE","operator":null,"country":"ORB","launch_date":"1998-08-02","launch_site_code":"ERAS","launch_vehicle":null,"mission":null,"orbit_class":"UNKNOWN","rcs_meters":0.5242,"size_class":null,"mass_kg":null,"dimensions":null,"purposes":["comms"],"wikipedia_slug":null,"has_3d_model":false,"image_url":null,"decayed_at":null,"tle_current":{"epoch":"2026-05-25T01:27:14.702112Z","epoch_age_seconds":70141,"freshness":"FRESH","line1":"1 25415U 98046C   26145.06058683  .00000780  00000+0  29353-3 0  9997","line2":"2 25415  44.9952 353.4857 0003107 184.7682 343.3053 14.39445911453446","mean_motion":14.39445911,"eccentricity":0.0003107,"inclination_deg":44.9952,"raan_deg":353.4857,"arg_perigee_deg":184.7682,"mean_anomaly_deg":343.3053,"bstar":0.00029353,"rev_number":45344,"period_min":100.03849321435,"perigee_km":758.11183019362,"apogee_km":762.5476734332,"semimajor_km":7138.4667518134,"source":"CELESTRAK","updated_at":"2026-05-25T13:38:22.862637Z"}}}